contact:dominique.lefevre@mio.osupytheas.fr, maurice.libes@osupytheas.fr, didier.mallarino@osupytheas.fr
Project:EMSO http://www.emso-fr.org/EMSO-France
Depth: 2436.0 m
Title:EMSO Ligure Ouest : Data MII capteur AQUADOPP
Date,Latitude,Longitude,X_East,Y_North,Z_Up,Amplitude_X,Amplitude_Y,Amplitude_Z,Batterie,SoundSpeed,Heading,Pitch,Roll,Pressure,TIS,Speed,Direction
, degrees North, degrees East, m.s-1, m.s-1,m.s-1, 1, 1, 1, Volt, m.s-1, degree, degree, degree, dbar, degree_C, m.s-1, degree
2023-10-03T00:04:03,42.805,6.029,0.014,0.012,-0.013,101.0,102.0,100.0,13.3,1505.2,343.0,-0.7,1.8,2471.514,13.29,0.018,49.4
2023-10-03T00:07:03,42.805,6.029,-0.013,0.019,-0.06,102.0,101.0,100.0,13.4,1505.2,350.3,-0.8,1.9,2471.528,13.29,0.023,325.6
2023-10-03T00:10:03,42.805,6.029,0.023,-0.011,-0.016,102.0,101.0,101.0,13.4,1505.2,358.0,-0.8,1.8,2471.529,13.29,0.025,115.6
2023-10-03T00:13:03,42.805,6.029,0.0,0.011,-0.02,102.0,101.0,103.0,13.3,1505.2,353.6,-0.7,1.8,2471.505,13.29,0.011,0.0
2023-10-03T00:16:03,42.805,6.029,-0.002,0.009,-0.012,101.0,103.0,100.0,13.4,1505.2,353.4,-0.8,1.8,2471.501,13.29,0.009,347.5
2023-10-03T00:19:03,42.805,6.029,0.009,0.031,-0.039,101.0,100.0,100.0,13.3,1505.2,346.4,-0.8,1.8,2471.505,13.29,0.032,16.2
2023-10-03T00:22:03,42.805,6.029,-0.018,-0.004,-0.036,102.0,101.0,100.0,13.4,1505.2,329.9,-0.8,1.8,2471.507,13.29,0.018,257.5
2023-10-03T00:25:03,42.805,6.029,-0.022,-0.004,-0.049,102.0,101.0,101.0,13.4,1505.2,348.1,-0.7,1.8,2471.475,13.29,0.022,259.7
2023-10-03T00:28:03,42.805,6.029,0.01,0.0,-0.023,101.0,102.0,100.0,13.4,1505.2,347.4,-0.7,1.8,2471.465,13.29,0.01,90.0
2023-10-03T00:31:03,42.805,6.029,0.034,-0.011,-0.01,101.0,101.0,100.0,13.4,1505.2,341.9,-0.8,1.8,2471.464,13.29,0.035,107.9
2023-10-03T00:34:03,42.805,6.029,0.007,0.002,-0.035,102.0,101.0,100.0,13.3,1505.2,338.3,-0.8,1.8,2471.493,13.29,0.007,74.1
2023-10-03T00:37:03,42.805,6.029,-0.015,0.008,-0.047,102.0,102.0,101.0,13.3,1505.2,340.0,-0.8,1.8,2471.467,13.29,0.017,298.1
2023-10-03T00:40:03,42.805,6.029,-0.005,-0.004,-0.035,99.0,103.0,101.0,13.4,1505.2,348.6,-0.8,1.8,2471.429,13.29,0.006,231.3
2023-10-03T00:43:03,42.805,6.029,0.0,-0.007,-0.042,100.0,101.0,102.0,13.4,1505.2,343.3,-0.7,1.8,2471.464,13.29,0.007,180.0
2023-10-03T00:46:03,42.805,6.029,0.011,0.002,-0.003,100.0,101.0,99.0,13.4,1505.2,350.5,-0.8,1.8,2471.448,13.29,0.011,79.7
2023-10-03T00:49:03,42.805,6.029,0.004,0.012,-0.007,103.0,101.0,102.0,13.3,1505.2,355.6,-0.8,1.8,2471.439,13.29,0.012,18.4
2023-10-03T00:52:03,42.805,6.029,0.005,0.001,0.013,100.0,100.0,102.0,13.3,1505.2,329.5,-0.8,1.8,2471.466,13.29,0.005,78.7
2023-10-03T00:55:03,42.805,6.029,0.008,0.017,0.003,102.0,101.0,102.0,13.4,1505.2,334.2,-0.7,1.8,2471.449,13.29,0.018,25.2
2023-10-03T00:58:03,42.805,6.029,-0.001,0.006,-0.041,102.0,101.0,101.0,13.4,1505.2,352.1,-0.8,1.8,2471.472,13.29,0.006,350.5
2023-10-03T01:04:03,42.805,6.029,0.023,-0.008,-0.067,104.0,103.0,102.0,13.4,1505.2,333.0,-0.8,1.8,2471.509,13.29,0.024,109.2
2023-10-03T01:07:03,42.805,6.029,-0.006,0.014,-0.04,103.0,102.0,100.0,13.3,1505.2,326.8,-0.7,1.8,2471.464,13.29,0.015,336.8
2023-10-03T01:10:03,42.805,6.029,-0.007,0.005,-0.013,103.0,102.0,100.0,13.4,1505.2,345.7,-0.8,1.8,2471.487,13.29,0.008,305.5
2023-10-03T01:13:03,42.805,6.029,0.028,0.002,-0.017,101.0,102.0,101.0,13.4,1505.2,343.9,-0.7,1.9,2471.503,13.29,0.028,85.9
2023-10-03T01:16:03,42.805,6.029,-0.009,0.007,-0.021,100.0,102.0,101.0,13.3,1505.2,342.6,-0.8,1.8,2471.473,13.29,0.011,307.9
2023-10-03T01:19:03,42.805,6.029,0.021,-0.002,-0.005,102.0,102.0,100.0,13.3,1505.2,348.5,-0.8,1.8,2471.489,13.29,0.021,95.4
2023-10-03T01:22:02,42.805,6.029,-0.025,0.01,-0.006,101.0,101.0,100.0,13.4,1505.2,336.1,-0.8,1.8,2471.447,13.29,0.026,291.8
2023-10-03T01:25:03,42.805,6.029,-0.015,0.0,-0.049,101.0,101.0,101.0,13.4,1505.2,347.8,-0.7,1.9,2471.466,13.29,0.015,270.0
2023-10-03T01:28:03,42.805,6.029,0.007,0.018,-0.014,102.0,102.0,101.0,13.4,1505.2,349.2,-0.8,1.8,2471.448,13.29,0.019,21.2
2023-10-03T01:31:03,42.805,6.029,0.0,-0.009,-0.053,101.0,101.0,101.0,13.3,1505.2,354.2,-0.7,1.8,2471.428,13.29,0.009,180.0
2023-10-03T01:34:03,42.805,6.029,0.0,0.011,-0.025,100.0,102.0,101.0,13.4,1505.2,336.0,-0.8,1.8,2471.476,13.29,0.011,0.0
2023-10-03T01:37:03,42.805,6.029,0.006,0.019,-0.01,101.0,101.0,101.0,13.4,1505.2,329.8,-0.8,1.8,2471.466,13.29,0.019,17.5
2023-10-03T01:40:03,42.805,6.029,0.0,0.006,-0.034,100.0,100.0,101.0,13.4,1505.2,356.8,-0.7,1.8,2471.41,13.29,0.006,0.0
2023-10-03T01:43:03,42.805,6.029,0.012,-0.008,-0.033,101.0,102.0,102.0,13.3,1505.2,354.6,-0.8,1.8,2471.43,13.29,0.014,123.7
2023-10-03T01:46:03,42.805,6.029,0.001,0.012,-0.041,102.0,101.0,100.0,13.3,1505.2,347.0,-0.8,1.8,2471.408,13.29,0.012,4.8
2023-10-03T01:49:03,42.805,6.029,0.003,0.004,-0.029,100.0,102.0,101.0,13.4,1505.2,349.5,-0.8,1.8,2471.396,13.29,0.005,36.9
2023-10-03T01:52:03,42.805,6.029,-0.006,0.037,-0.026,100.0,102.0,100.0,13.4,1505.2,346.9,-0.8,1.8,2471.456,13.29,0.037,350.8
2023-10-03T01:55:03,42.805,6.029,-0.017,0.005,-0.039,103.0,101.0,100.0,13.4,1505.2,355.8,-0.8,1.8,2471.454,13.29,0.017,286.4
2023-10-03T01:58:03,42.805,6.029,-0.02,0.047,0.024,100.0,102.0,100.0,13.4,1505.2,328.7,-0.8,1.8,2471.405,13.29,0.051,337.0
2023-10-03T02:04:03,42.805,6.029,-0.016,0.021,-0.014,104.0,98.0,100.0,13.4,1505.2,337.6,-0.8,1.8,2471.444,13.29,0.026,322.7
2023-10-03T02:07:03,42.805,6.029,0.07,0.008,0.03,100.0,102.0,101.0,13.4,1505.2,334.2,-0.8,1.8,2471.469,13.29,0.07,83.5
2023-10-03T02:10:03,42.805,6.029,-0.014,0.013,-0.029,101.0,102.0,101.0,13.4,1505.2,341.5,-0.8,1.8,2471.442,13.29,0.019,312.9
2023-10-03T02:13:03,42.805,6.029,0.0,0.029,-0.016,101.0,103.0,100.0,13.4,1505.2,338.2,-0.8,1.8,2471.452,13.29,0.028,0.0
2023-10-03T02:16:03,42.805,6.029,0.002,0.025,-0.011,102.0,102.0,100.0,13.3,1505.2,338.3,-0.8,1.8,2471.439,13.29,0.025,4.6
2023-10-03T02:19:03,42.805,6.029,-0.009,0.031,-0.04,101.0,102.0,101.0,13.3,1505.2,352.5,-0.8,1.8,2471.421,13.29,0.032,343.8
2023-10-03T02:22:03,42.805,6.029,0.008,0.001,-0.025,102.0,100.0,105.0,13.4,1505.2,338.0,-0.8,1.8,2471.405,13.29,0.008,82.9
2023-10-03T02:25:03,42.805,6.029,-0.014,0.001,-0.011,100.0,102.0,101.0,13.3,1505.2,338.8,-0.8,1.8,2471.45,13.29,0.014,274.1
2023-10-03T02:28:03,42.805,6.029,-0.024,0.003,-0.039,103.0,100.0,101.0,13.3,1505.2,345.4,-0.8,1.8,2471.393,13.29,0.024,277.1
2023-10-03T02:31:03,42.805,6.029,0.007,-0.004,-0.043,102.0,101.0,101.0,13.4,1505.2,340.0,-0.8,1.8,2471.401,13.29,0.008,119.7
2023-10-03T02:34:03,42.805,6.029,0.001,0.002,-0.016,102.0,104.0,102.0,13.4,1505.2,347.2,-0.8,1.8,2471.422,13.29,0.002,26.6
2023-10-03T02:37:03,42.805,6.029,0.0,0.002,-0.022,102.0,101.0,101.0,13.3,1505.2,340.9,-0.8,1.8,2471.414,13.29,0.002,0.0
2023-10-03T02:40:03,42.805,6.029,-0.012,0.0,-0.062,101.0,102.0,100.0,13.3,1505.2,341.2,-0.7,1.8,2471.39,13.29,0.012,270.0
2023-10-03T02:43:03,42.805,6.029,0.009,0.004,-0.025,100.0,109.0,99.0,13.4,1505.2,341.8,-0.8,1.8,2471.412,13.29,0.009,66.0
2023-10-03T02:46:03,42.805,6.029,0.008,0.014,0.004,101.0,101.0,102.0,13.4,1505.2,344.8,-0.8,1.8,2471.389,13.29,0.016,29.7
2023-10-03T02:49:03,42.805,6.029,-0.004,0.029,-0.004,102.0,102.0,100.0,13.4,1505.2,329.4,-0.7,1.9,2471.395,13.29,0.029,352.2
2023-10-03T02:52:03,42.805,6.029,-0.012,0.017,-0.022,101.0,101.0,104.0,13.4,1505.2,346.7,-0.8,1.8,2471.441,13.29,0.02,324.8
2023-10-03T02:55:03,42.805,6.029,0.0,0.011,-0.031,103.0,102.0,101.0,13.4,1505.2,339.1,-0.8,1.8,2471.43,13.3,0.011,0.0
2023-10-03T02:58:03,42.805,6.029,-0.002,0.024,-0.01,100.0,112.0,102.0,13.3,1505.2,341.9,-0.8,1.8,2471.394,13.3,0.024,355.2
2023-10-03T03:04:03,42.805,6.029,-0.012,0.017,-0.036,101.0,101.0,100.0,13.4,1505.2,355.2,-0.8,1.8,2471.439,13.29,0.02,324.8
2023-10-03T03:07:03,42.805,6.029,-0.001,0.008,-0.023,102.0,101.0,101.0,13.4,1505.2,336.4,-0.8,1.8,2471.411,13.29,0.008,352.9
2023-10-03T03:10:03,42.805,6.029,-0.002,0.013,-0.008,102.0,102.0,101.0,13.3,1505.2,329.7,-0.8,1.8,2471.424,13.29,0.013,351.3
2023-10-03T03:13:03,42.805,6.029,-0.015,0.037,-0.03,101.0,102.0,100.0,13.4,1505.2,354.2,-0.8,1.8,2471.432,13.29,0.039,337.9
2023-10-03T03:16:03,42.805,6.029,-0.004,0.003,-0.055,101.0,101.0,100.0,13.4,1505.2,337.8,-0.8,1.8,2471.403,13.29,0.005,306.9
2023-10-03T03:19:03,42.805,6.029,-0.004,-0.005,-0.06,101.0,102.0,101.0,13.4,1505.2,340.4,-0.7,1.8,2471.397,13.29,0.006,218.7
2023-10-03T03:22:03,42.805,6.029,-0.001,-0.008,-0.055,101.0,102.0,100.0,13.4,1505.2,356.1,-0.8,1.8,2471.425,13.29,0.008,187.1
2023-10-03T03:25:03,42.805,6.029,-0.006,0.047,-0.024,101.0,103.0,101.0,13.4,1505.2,357.9,-0.7,1.8,2471.385,13.29,0.047,352.7
2023-10-03T03:28:03,42.805,6.029,0.024,-0.006,-0.021,103.0,102.0,100.0,13.4,1505.2,338.8,-0.8,1.8,2471.372,13.29,0.024,104.0
2023-10-03T03:31:03,42.805,6.029,0.004,-0.002,0.004,101.0,101.0,100.0,13.4,1505.2,337.0,-0.8,1.8,2471.409,13.29,0.004,116.6
2023-10-03T03:34:03,42.805,6.029,-0.023,0.002,-0.024,101.0,103.0,101.0,13.4,1505.2,349.4,-0.7,1.8,2471.403,13.29,0.023,275.0
2023-10-03T03:37:03,42.805,6.029,0.017,-0.014,-0.041,102.0,102.0,100.0,13.4,1505.2,356.1,-0.8,1.8,2471.386,13.29,0.022,129.5
2023-10-03T03:40:03,42.805,6.029,-0.009,0.025,0.021,101.0,101.0,101.0,13.4,1505.2,348.6,-0.8,1.8,2471.389,13.3,0.026,340.2
2023-10-03T03:43:03,42.805,6.029,0.003,0.029,0.015,101.0,102.0,101.0,13.4,1505.2,335.4,-0.8,1.8,2471.404,13.3,0.029,5.9
2023-10-03T03:46:03,42.805,6.029,0.014,0.008,-0.013,102.0,108.0,101.0,13.4,1505.2,346.2,-0.8,1.8,2471.423,13.3,0.016,60.3
2023-10-03T03:49:03,42.805,6.029,0.006,-0.006,-0.021,100.0,101.0,101.0,13.4,1505.2,354.9,-0.8,1.8,2471.418,13.3,0.008,135.0
2023-10-03T03:52:03,42.805,6.029,-0.005,0.016,-0.022,101.0,102.0,101.0,13.4,1505.2,345.1,-0.8,1.8,2471.427,13.3,0.016,342.6
2023-10-03T03:55:03,42.805,6.029,0.009,0.006,-0.043,103.0,101.0,101.0,13.3,1505.2,336.3,-0.8,1.8,2471.397,13.3,0.01,56.3
2023-10-03T03:58:03,42.805,6.029,0.004,0.01,-0.009,101.0,101.0,105.0,13.4,1505.2,347.3,-0.7,1.8,2471.407,13.3,0.01,21.8
2023-10-03T04:04:03,42.805,6.029,0.011,0.005,-0.022,101.0,101.0,100.0,13.3,1505.2,338.7,-0.8,1.8,2471.432,13.29,0.012,65.6
2023-10-03T04:07:03,42.805,6.029,0.026,0.023,0.022,101.0,101.0,100.0,13.3,1505.2,348.6,-0.8,1.9,2471.43,13.3,0.034,48.5
2023-10-03T04:10:03,42.805,6.029,0.008,-0.007,0.023,103.0,102.0,105.0,13.4,1505.2,355.0,-0.8,1.8,2471.469,13.3,0.01,131.2
2023-10-03T04:13:03,42.805,6.029,0.008,0.011,-0.025,101.0,103.0,101.0,13.4,1505.2,342.2,-0.8,1.8,2471.389,13.3,0.013,36.0
2023-10-03T04:16:03,42.805,6.029,0.008,0.009,0.02,103.0,102.0,101.0,13.4,1505.2,332.6,-0.8,1.8,2471.43,13.3,0.012,41.6
2023-10-03T04:19:03,42.805,6.029,0.014,-0.01,-0.065,101.0,103.0,100.0,13.4,1505.2,339.0,-0.7,1.8,2471.424,13.3,0.017,125.5
2023-10-03T04:22:03,42.805,6.029,0.007,0.005,-0.027,102.0,101.0,100.0,13.4,1505.2,345.9,-0.8,1.8,2471.418,13.3,0.008,54.5
2023-10-03T04:25:03,42.805,6.029,0.032,-0.014,0.012,102.0,100.0,100.0,13.3,1505.2,353.2,-0.8,1.8,2471.437,13.3,0.034,113.6
2023-10-03T04:28:03,42.805,6.029,0.025,0.004,0.008,101.0,101.0,101.0,13.3,1505.2,352.1,-0.8,1.8,2471.384,13.3,0.025,80.9
2023-10-03T04:31:03,42.805,6.029,0.008,0.008,-0.006,102.0,102.0,101.0,13.4,1505.2,354.8,-0.7,1.8,2471.429,13.3,0.011,45.0
2023-10-03T04:34:03,42.805,6.029,0.003,0.006,-0.027,103.0,100.0,103.0,13.4,1505.2,354.6,-0.8,1.8,2471.384,13.3,0.006,26.6
2023-10-03T04:37:03,42.805,6.029,-0.016,0.046,-0.007,102.0,102.0,102.0,13.4,1505.2,349.6,-0.8,1.8,2471.379,13.3,0.048,340.8
2023-10-03T04:40:03,42.805,6.029,0.001,-0.002,-0.03,102.0,103.0,101.0,13.4,1505.2,330.2,-0.8,1.8,2471.404,13.3,0.002,153.4
2023-10-03T04:43:03,42.805,6.029,0.008,-0.003,-0.009,101.0,102.0,101.0,13.3,1505.2,352.4,-0.8,1.8,2471.373,13.3,0.008,110.6
2023-10-03T04:46:03,42.805,6.029,0.009,0.005,-0.003,102.0,102.0,100.0,13.4,1505.2,354.6,-0.7,1.8,2471.374,13.3,0.01,60.9
2023-10-03T04:49:03,42.805,6.029,0.019,0.014,-0.032,101.0,102.0,101.0,13.3,1505.2,344.3,-0.8,1.8,2471.381,13.3,0.023,53.6
2023-10-03T04:52:03,42.805,6.029,0.007,0.001,-0.053,101.0,102.0,100.0,13.4,1505.2,338.7,-0.8,1.8,2471.392,13.3,0.007,81.9
2023-10-03T04:55:03,42.805,6.029,0.007,0.022,-0.014,106.0,102.0,100.0,13.4,1505.2,338.5,-0.7,1.8,2471.396,13.3,0.023,17.6
2023-10-03T04:58:03,42.805,6.029,-0.001,0.009,-0.041,101.0,102.0,102.0,13.4,1505.2,342.5,-0.7,1.8,2471.39,13.3,0.009,353.7
2023-10-03T05:04:03,42.805,6.029,0.002,0.027,-0.023,102.0,102.0,101.0,13.4,1505.2,350.0,-0.8,1.8,2471.419,13.29,0.027,4.2
2023-10-03T05:07:03,42.805,6.029,0.007,0.006,-0.005,101.0,101.0,101.0,13.3,1505.2,348.4,-0.7,1.8,2471.434,13.29,0.009,49.4
2023-10-03T05:10:03,42.805,6.029,0.014,-0.011,0.008,101.0,101.0,101.0,13.4,1505.2,354.3,-0.8,1.8,2471.44,13.29,0.017,128.2
2023-10-03T05:13:03,42.805,6.029,0.009,0.029,-0.004,103.0,101.0,100.0,13.4,1505.2,343.8,-0.8,1.8,2471.435,13.29,0.03,17.2
2023-10-03T05:16:03,42.805,6.029,-0.015,0.025,-0.007,102.0,102.0,101.0,13.4,1505.2,333.0,-0.7,1.8,2471.441,13.29,0.029,329.0
2023-10-03T05:19:03,42.805,6.029,0.014,-0.002,0.0,102.0,102.0,101.0,13.4,1505.2,330.2,-0.8,1.8,2471.492,13.3,0.014,98.1
2023-10-03T05:22:03,42.805,6.029,-0.016,0.0,-0.012,102.0,101.0,111.0,13.3,1505.2,331.7,-0.8,1.8,2471.419,13.3,0.016,270.0
2023-10-03T05:25:03,42.805,6.029,-0.008,0.008,-0.041,101.0,102.0,100.0,13.3,1505.2,348.0,-0.8,1.8,2471.443,13.3,0.011,315.0
2023-10-03T05:28:03,42.805,6.029,-0.01,-0.001,-0.055,101.0,102.0,101.0,13.3,1505.2,330.3,-0.8,1.8,2471.408,13.3,0.01,264.3
2023-10-03T05:31:03,42.805,6.029,0.01,0.005,-0.028,102.0,101.0,100.0,13.4,1505.2,338.0,-0.8,1.8,2471.411,13.3,0.011,63.4
2023-10-03T05:34:03,42.805,6.029,-0.002,-0.022,-0.049,102.0,102.0,100.0,13.4,1505.2,350.3,-0.8,1.8,2471.397,13.3,0.022,185.2
2023-10-03T05:37:03,42.805,6.029,-0.004,0.022,0.0,101.0,105.0,101.0,13.3,1505.2,340.2,-0.8,1.9,2471.442,13.3,0.022,349.7
2023-10-03T05:40:03,42.805,6.029,0.003,0.009,-0.029,100.0,103.0,101.0,13.3,1505.2,342.2,-0.7,1.8,2471.455,13.3,0.009,18.4
2023-10-03T05:43:03,42.805,6.029,0.01,-0.004,0.007,100.0,102.0,101.0,13.3,1505.2,344.6,-0.8,1.8,2471.443,13.3,0.01,111.8
2023-10-03T05:46:03,42.805,6.029,0.012,0.002,-0.004,103.0,101.0,101.0,13.4,1505.2,339.3,-0.8,1.8,2471.421,13.3,0.012,80.5
2023-10-03T05:49:03,42.805,6.029,0.005,0.032,0.0,103.0,103.0,99.0,13.3,1505.2,354.5,-0.8,1.8,2471.414,13.3,0.032,8.9
2023-10-03T05:52:03,42.805,6.029,0.012,0.009,-0.028,104.0,103.0,101.0,13.4,1505.2,350.9,-0.7,1.8,2471.412,13.3,0.015,53.1
2023-10-03T05:55:03,42.805,6.029,-0.023,0.025,-0.02,101.0,102.0,101.0,13.3,1505.2,344.6,-0.8,1.8,2471.427,13.3,0.033,317.4
2023-10-03T05:58:03,42.805,6.029,0.018,-0.002,-0.044,102.0,100.0,101.0,13.4,1505.2,331.5,-0.8,1.8,2471.429,13.3,0.018,96.3
2023-10-03T06:01:03,42.805,6.029,0.026,0.002,-0.033,102.0,102.0,100.0,13.3,1505.2,330.7,-0.8,1.8,2471.465,13.3,0.026,85.6
2023-10-03T06:04:03,42.805,6.029,0.015,0.006,-0.031,101.0,102.0,101.0,13.3,1505.2,329.0,-0.8,1.8,2471.438,13.29,0.016,68.2
2023-10-03T06:07:03,42.805,6.029,0.014,0.026,-0.019,102.0,101.0,100.0,13.3,1505.2,339.5,-0.8,1.8,2471.456,13.29,0.029,28.3
2023-10-03T06:10:03,42.805,6.029,0.022,-0.001,-0.008,101.0,101.0,100.0,13.3,1505.2,339.1,-0.8,1.8,2471.448,13.29,0.022,92.6
2023-10-03T06:13:03,42.805,6.029,0.005,0.007,-0.019,101.0,103.0,101.0,13.4,1505.2,337.0,-0.8,1.8,2471.436,13.29,0.008,35.5
2023-10-03T06:16:03,42.805,6.029,0.008,-0.003,-0.036,101.0,103.0,101.0,13.4,1505.2,340.1,-0.8,1.8,2471.469,13.29,0.008,110.6
2023-10-03T06:19:03,42.805,6.029,-0.01,0.015,-0.009,102.0,102.0,101.0,13.4,1505.2,330.2,-0.8,1.8,2471.442,13.29,0.018,326.3
2023-10-03T06:22:03,42.805,6.029,-0.004,0.007,-0.042,101.0,102.0,101.0,13.4,1505.2,336.6,-0.8,1.8,2471.474,13.29,0.008,330.3
2023-10-03T06:25:03,42.805,6.029,0.044,-0.004,-0.044,101.0,104.0,101.0,13.4,1505.2,345.1,-0.7,1.8,2471.461,13.29,0.044,95.2
2023-10-03T06:28:03,42.805,6.029,0.012,0.021,0.012,102.0,101.0,102.0,13.4,1505.2,345.5,-0.8,1.8,2471.471,13.29,0.024,29.7
2023-10-03T06:31:03,42.805,6.029,-0.005,0.019,-0.029,102.0,102.0,101.0,13.4,1505.2,336.0,-0.8,1.9,2471.495,13.29,0.019,345.3
2023-10-03T06:34:03,42.805,6.029,0.009,0.023,-0.002,101.0,101.0,101.0,13.4,1505.2,341.2,-0.8,1.8,2471.471,13.29,0.024,21.4
2023-10-03T06:37:03,42.805,6.029,0.004,0.014,0.009,102.0,101.0,101.0,13.4,1505.2,350.7,-0.8,1.8,2471.492,13.29,0.014,15.9
2023-10-03T06:40:03,42.805,6.029,0.016,0.007,0.0,101.0,102.0,101.0,13.3,1505.2,340.8,-0.8,1.8,2471.498,13.29,0.017,66.4
2023-10-03T06:43:03,42.805,6.029,0.02,0.019,-0.003,102.0,102.0,102.0,13.4,1505.2,348.0,-0.8,1.8,2471.514,13.29,0.027,46.5
2023-10-03T06:46:03,42.805,6.029,0.004,-0.007,-0.016,103.0,103.0,100.0,13.4,1505.2,337.6,-0.8,1.8,2471.493,13.29,0.008,150.3
2023-10-03T06:49:03,42.805,6.029,0.003,0.0,-0.043,103.0,102.0,100.0,13.3,1505.2,334.8,-0.8,1.8,2471.504,13.29,0.003,90.0
2023-10-03T06:52:03,42.805,6.029,0.004,0.006,0.007,102.0,102.0,101.0,13.3,1505.2,335.6,-0.8,1.8,2471.515,13.29,0.007,33.7
2023-10-03T06:55:03,42.805,6.029,-0.02,0.016,-0.027,101.0,103.0,100.0,13.4,1505.2,342.1,-0.8,1.8,2471.529,13.29,0.025,308.7
2023-10-03T06:58:03,42.805,6.029,0.012,-0.012,-0.014,101.0,103.0,101.0,13.4,1505.2,346.4,-0.8,1.8,2471.503,13.29,0.016,135.0
2023-10-03T07:04:03,42.805,6.029,0.01,-0.004,-0.021,102.0,101.0,101.0,13.4,1505.2,356.8,-0.7,1.8,2471.568,13.29,0.01,111.8
2023-10-03T07:07:03,42.805,6.029,0.005,0.02,0.014,101.0,103.0,101.0,13.4,1505.2,356.9,-0.7,1.8,2471.57,13.29,0.02,14.0
2023-10-03T07:10:03,42.805,6.029,0.046,-0.011,-0.018,103.0,104.0,101.0,13.3,1505.2,344.2,-0.8,1.8,2471.582,13.29,0.047,103.4
2023-10-03T07:13:03,42.805,6.029,0.005,0.009,-0.042,102.0,103.0,102.0,13.3,1505.2,341.8,-0.8,1.8,2471.598,13.29,0.01,29.1
2023-10-03T07:16:03,42.805,6.029,-0.035,0.019,-0.043,102.0,102.0,100.0,13.4,1505.2,340.4,-0.8,1.8,2471.544,13.29,0.039,298.5
2023-10-03T07:19:03,42.805,6.029,0.013,0.019,-0.018,101.0,101.0,101.0,13.4,1505.2,336.4,-0.8,1.8,2471.526,13.29,0.023,34.4
2023-10-03T07:22:03,42.805,6.029,-0.008,0.032,0.021,101.0,102.0,101.0,13.4,1505.2,336.1,-0.8,1.8,2471.523,13.29,0.032,346.0
2023-10-03T07:25:03,42.805,6.029,0.016,0.009,-0.021,104.0,101.0,100.0,13.4,1505.2,328.7,-0.8,1.8,2471.556,13.29,0.018,60.6
2023-10-03T07:28:03,42.805,6.029,0.007,0.021,-0.029,102.0,102.0,101.0,13.4,1505.2,343.6,-0.8,1.8,2471.596,13.29,0.022,18.4
2023-10-03T07:31:03,42.805,6.029,0.007,-0.009,-0.004,103.0,103.0,103.0,13.4,1505.2,346.4,-0.8,1.8,2471.545,13.29,0.011,142.1
2023-10-03T07:34:03,42.805,6.029,0.006,-0.002,-0.054,100.0,108.0,100.0,13.3,1505.2,352.1,-0.8,1.8,2471.598,13.29,0.006,108.4
2023-10-03T07:37:03,42.805,6.029,0.025,0.0,-0.008,101.0,102.0,102.0,13.3,1505.2,330.6,-0.8,1.8,2471.562,13.3,0.025,90.0
2023-10-03T07:40:03,42.805,6.029,0.017,0.014,-0.021,102.0,101.0,102.0,13.4,1505.2,340.8,-0.8,1.8,2471.556,13.3,0.022,50.5
2023-10-03T07:43:03,42.805,6.029,0.007,-0.01,-0.042,101.0,102.0,101.0,13.4,1505.2,346.5,-0.8,1.8,2471.607,13.3,0.012,145.0
2023-10-03T07:46:03,42.805,6.029,0.007,0.005,-0.022,101.0,100.0,101.0,13.4,1505.2,345.4,-0.8,1.8,2471.545,13.3,0.008,54.5
2023-10-03T07:49:03,42.805,6.029,-0.009,0.011,-0.018,101.0,103.0,101.0,13.3,1505.2,345.3,-0.8,1.8,2471.565,13.3,0.014,320.7
2023-10-03T07:52:03,42.805,6.029,-0.006,0.029,0.019,101.0,101.0,101.0,13.4,1505.2,328.7,-0.8,1.8,2471.554,13.3,0.029,348.3
2023-10-03T07:55:03,42.805,6.029,-0.013,0.029,-0.03,102.0,101.0,100.0,13.4,1505.2,337.1,-0.7,1.8,2471.572,13.3,0.031,335.9
2023-10-03T07:58:03,42.805,6.029,0.011,0.004,0.0,102.0,102.0,101.0,13.3,1505.2,335.0,-0.8,1.8,2471.592,13.3,0.011,70.0
2023-10-03T08:04:03,42.805,6.029,0.014,-0.007,-0.035,103.0,101.0,101.0,13.4,1505.2,328.0,-0.8,1.8,2471.633,13.29,0.015,116.6
2023-10-03T08:07:03,42.805,6.029,-0.001,0.008,0.018,102.0,102.0,100.0,13.4,1505.2,337.5,-0.8,1.8,2471.648,13.3,0.008,352.9
2023-10-03T08:10:03,42.805,6.029,0.01,0.002,-0.058,102.0,101.0,101.0,13.4,1505.2,334.2,-0.8,1.8,2471.644,13.3,0.01,78.7
2023-10-03T08:13:03,42.805,6.029,0.007,0.0,-0.01,102.0,102.0,100.0,13.3,1505.2,333.4,-0.7,1.8,2471.625,13.3,0.007,90.0
2023-10-03T08:16:03,42.805,6.029,0.024,0.016,0.023,103.0,103.0,101.0,13.4,1505.2,344.0,-0.8,1.8,2471.63,13.3,0.028,56.3
2023-10-03T08:19:03,42.805,6.029,-0.003,0.026,-0.024,102.0,103.0,102.0,13.4,1505.2,343.0,-0.8,1.8,2471.587,13.3,0.026,353.4
2023-10-03T08:22:03,42.805,6.029,-0.004,0.005,-0.035,101.0,102.0,101.0,13.4,1505.2,349.6,-0.8,1.8,2471.611,13.3,0.006,321.3
2023-10-03T08:25:03,42.805,6.029,-0.006,0.016,-0.029,102.0,102.0,102.0,13.4,1505.2,351.0,-0.8,1.9,2471.606,13.3,0.017,339.4
2023-10-03T08:28:03,42.805,6.029,0.033,0.002,-0.038,102.0,103.0,100.0,13.4,1505.2,327.3,-0.8,1.8,2471.66,13.3,0.033,86.5
2023-10-03T08:31:03,42.805,6.029,0.006,0.0,0.009,101.0,101.0,100.0,13.3,1505.2,335.2,-0.8,1.8,2471.593,13.3,0.006,90.0
2023-10-03T08:34:03,42.805,6.029,0.005,0.014,-0.006,101.0,102.0,101.0,13.4,1505.2,327.3,-0.8,1.8,2471.624,13.3,0.014,19.6
2023-10-03T08:37:03,42.805,6.029,0.029,0.015,-0.001,102.0,103.0,101.0,13.4,1505.2,334.7,-0.8,1.8,2471.607,13.3,0.032,62.6
2023-10-03T08:40:03,42.805,6.029,0.014,0.015,-0.025,103.0,103.0,101.0,13.4,1505.2,355.8,-0.7,1.8,2471.564,13.3,0.02,43.0
2023-10-03T08:43:03,42.805,6.029,-0.011,0.021,-0.02,101.0,101.0,100.0,13.4,1505.2,336.6,-0.8,1.8,2471.619,13.3,0.023,332.4
2023-10-03T08:46:03,42.805,6.029,0.007,0.026,-0.011,104.0,102.0,100.0,13.4,1505.2,345.7,-0.8,1.8,2471.563,13.3,0.026,15.1
2023-10-03T08:49:03,42.805,6.029,0.014,0.004,-0.055,101.0,102.0,100.0,13.4,1505.2,338.5,-0.7,1.8,2471.647,13.3,0.014,74.1
2023-10-03T08:52:03,42.805,6.029,-0.003,0.02,-0.024,102.0,102.0,101.0,13.3,1505.2,334.6,-0.7,1.8,2471.617,13.3,0.02,351.5
2023-10-03T08:55:03,42.805,6.029,0.015,0.008,-0.006,101.0,102.0,100.0,13.4,1505.2,349.0,-0.8,1.8,2471.59,13.3,0.017,61.9
2023-10-03T08:58:03,42.805,6.029,0.002,0.008,-0.029,102.0,105.0,101.0,13.4,1505.2,345.9,-0.8,1.8,2471.602,13.3,0.008,14.0
2023-10-03T09:04:03,42.805,6.029,0.038,0.003,-0.01,102.0,101.0,100.0,13.4,1505.2,333.4,-0.7,1.9,2471.654,13.29,0.038,85.5
2023-10-03T09:07:03,42.805,6.029,0.003,0.005,-0.01,103.0,100.0,100.0,13.4,1505.2,332.5,-0.8,1.8,2471.697,13.3,0.005,31.0
2023-10-03T09:10:03,42.805,6.029,0.002,0.018,-0.027,101.0,101.0,101.0,13.4,1505.2,345.9,-0.7,1.8,2471.646,13.3,0.018,6.3
2023-10-03T09:13:03,42.805,6.029,-0.008,0.021,-0.027,101.0,100.0,100.0,13.4,1505.2,344.0,-0.8,1.8,2471.635,13.3,0.022,339.1
2023-10-03T09:16:03,42.805,6.029,0.011,0.004,-0.024,102.0,101.0,101.0,13.4,1505.2,345.5,-0.8,1.8,2471.661,13.3,0.011,70.0
2023-10-03T09:19:03,42.805,6.029,-0.002,0.008,-0.02,102.0,102.0,101.0,13.4,1505.2,350.7,-0.8,1.8,2471.671,13.3,0.008,346.0
2023-10-03T09:22:03,42.805,6.029,-0.011,0.013,-0.014,100.0,102.0,101.0,13.4,1505.2,347.2,-0.8,1.8,2471.646,13.3,0.017,319.8
2023-10-03T09:25:03,42.805,6.029,0.03,0.015,-0.001,102.0,102.0,101.0,13.4,1505.2,351.5,-0.7,1.8,2471.613,13.3,0.033,63.4
2023-10-03T09:28:03,42.805,6.029,-0.001,0.005,-0.034,102.0,102.0,101.0,13.3,1505.2,347.8,-0.8,1.8,2471.606,13.3,0.005,348.7
2023-10-03T09:31:03,42.805,6.029,-0.003,-0.005,0.0,103.0,102.0,101.0,13.4,1505.2,348.2,-0.7,1.8,2471.635,13.3,0.005,211.0
2023-10-03T09:34:03,42.805,6.029,0.005,0.016,0.009,104.0,101.0,102.0,13.4,1505.2,342.7,-0.7,1.8,2471.644,13.3,0.016,17.4
2023-10-03T09:37:03,42.805,6.029,0.0,0.023,-0.019,103.0,102.0,101.0,13.3,1505.2,334.2,-0.8,1.8,2471.63,13.3,0.023,0.0
2023-10-03T09:40:03,42.805,6.029,-0.007,0.019,-0.032,103.0,102.0,101.0,13.4,1505.2,345.7,-0.8,1.8,2471.585,13.3,0.02,339.8
2023-10-03T09:43:03,42.805,6.029,0.024,-0.011,-0.003,103.0,104.0,101.0,13.4,1505.2,355.7,-0.8,1.8,2471.626,13.3,0.026,114.6
2023-10-03T09:46:03,42.805,6.029,-0.014,0.02,0.009,103.0,102.0,101.0,13.3,1505.2,331.2,-0.8,1.8,2471.628,13.3,0.024,325.0
2023-10-03T09:49:03,42.805,6.029,-0.02,0.007,-0.034,103.0,103.0,101.0,13.4,1505.2,331.2,-0.8,1.8,2471.631,13.3,0.021,289.3
2023-10-03T09:52:03,42.805,6.029,-0.009,0.002,-0.019,103.0,101.0,102.0,13.3,1505.2,338.8,-0.8,1.8,2471.621,13.3,0.009,282.5
2023-10-03T09:55:03,42.805,6.029,0.003,0.02,0.001,102.0,103.0,103.0,13.3,1505.2,332.1,-0.8,1.8,2471.647,13.3,0.02,8.5
2023-10-03T09:58:03,42.805,6.029,-0.011,0.015,-0.011,103.0,103.0,100.0,13.4,1505.2,336.3,-0.7,1.8,2471.646,13.3,0.018,323.7